SR6WXP Weather Reports


time (UTC)temp
F
wind
direction
speed
knots
gust
knots
rain 1hr
in
rain 24hr
in
rain mn
in
humidity
%
barometer
mb
20260505163930 85 164 7.0 13.9 0.00 0.00 0.00 27 982.3
20260505163528 85 177 7.0 12.2 0.00 0.00 0.00 27 982.4
20260505163128 85 154 5.2 9.6 0.00 0.00 0.00 27 982.4
20260505162728 85 154 5.2 8.7 0.00 0.00 0.00 27 982.4
20260505162328 85 169 6.1 12.2 0.00 0.00 0.00 27 982.4
20260505161928 85 147 8.7 13.0 0.00 0.00 0.00 27 982.4
20260505161526 85 165 6.1 9.6 0.00 0.00 0.00 27 982.4
20260505161126 85 156 7.0 12.2 0.00 0.00 0.00 28 982.4
20260505160726 84 170 5.2 12.2 0.00 0.00 0.00 28 982.5
20260505160326 84 151 2.6 4.3 0.00 0.00 0.00 28 982.4
20260505153119 86 144 7.0 12.2 0.00 0.00 0.00 28 982.4
20260505152719 86 131 7.8 13.9 0.00 0.00 0.00 28 982.4
20260505152320 86 143 6.1 15.6 0.00 0.00 0.00 28 982.5
20260505151920 86 163 6.1 13.0 0.00 0.00 0.00 28 982.5
20260505151518 86 140 7.0 17.4 0.00 0.00 0.00 29 982.4
20260505151118 86 171 3.5 6.1 0.00 0.00 0.00 29 982.5
20260505150718 86 138 4.3 13.0 0.00 0.00 0.00 29 982.5
20260505150310 86 151 5.2 11.3 0.00 0.00 0.00 29 982.5
20260505140259 79 201 6.1 9.6 0.00 0.00 0.00 34 982.8
20260505130251 76 162 8.7 13.9 0.00 0.00 0.00 37 983.3
20260505124649 75 178 7.0 11.3 0.00 0.00 0.00 38 983.6
20260505124249 75 132 5.2 11.3 0.00 0.00 0.00 38 983.6
20260505123849 75 174 5.2 8.7 0.00 0.00 0.00 38 983.5
20260505123440 75 187 4.3 9.6 0.00 0.00 0.00 38 983.6
20260505123039 75 130 7.8 13.0 0.00 0.00 0.00 38 983.7
20260505122638 75 127 7.0 16.5 0.00 0.00 0.00 38 983.7
20260505122237 74 133 5.2 11.3 0.00 0.00 0.00 38 983.8
20260505121837 74 118 5.2 10.4 0.00 0.00 0.00 38 983.7
20260505121435 74 171 5.2 8.7 0.00 0.00 0.00 38 983.8
20260505121033 74 168 6.1 12.2 0.00 0.00 0.00 39 983.9
20260505120632 73 165 6.1 13.0 0.00 0.00 0.00 39 983.9
20260505120232 73 144 6.1 11.3 0.00 0.00 0.00 39 984.0
20260505115832 73 177 5.2 9.6 0.00 0.00 0.00 39 984.0
20260505115430 73 180 6.1 9.6 0.00 0.00 0.00 38 984.0
20260505115155 73 169 7.8 11.3 0.00 0.00 0.00 38 984.1
20260505115030 73 169 7.8 11.3 0.00 0.00 0.00 38 984.1
20260505114630 73 161 6.1 12.2 0.00 0.00 0.00 38 984.1
20260505114230 73 150 7.0 14.8 0.00 0.00 0.00 38 984.1
20260505113830 73 145 7.0 13.0 0.00 0.00 0.00 38 984.1
20260505113428 73 141 5.2 9.6 0.00 0.00 0.00 38 984.1
20260505113028 73 135 5.2 8.7 0.00 0.00 0.00 38 984.2
20260505112935 73 153 6.1 11.3 0.00 0.00 0.00 38 984.2
20260505112627 73 153 6.1 11.3 0.00 0.00 0.00 38 984.2
20260505112227 73 134 7.8 17.4 0.00 0.00 0.00 38 984.2
20260505111827 73 149 4.3 7.8 0.00 0.00 0.00 38 984.3
20260505111425 73 149 4.3 7.8 0.00 0.00 0.00 38 984.3
20260505111025 73 151 4.3 8.7 0.00 0.00 0.00 38 984.3
20260505110625 73 136 4.3 9.6 0.00 0.00 0.00 38 984.3
20260505110223 73 145 5.2 9.6 0.00 0.00 0.00 38 984.3
20260505102219 72 134 4.3 12.2 0.00 0.00 0.00 38 984.7
20260505102135 72 134 5.2 8.7 0.00 0.00 0.00 38 984.7
20260505101819 72 134 5.2 8.7 0.00 0.00 0.00 38 984.7
20260505101417 72 134 6.1 10.4 0.00 0.00 0.00 38 984.7
20260505101017 72 150 5.2 9.6 0.00 0.00 0.00 38 984.8
20260505100617 72 149 5.2 8.7 0.00 0.00 0.00 38 984.8
20260505095809 72 145 7.8 12.2 0.00 0.00 0.00 38 984.8
20260505095406 72 182 5.2 9.6 0.00 0.00 0.00 38 985.0
20260505095003 72 130 4.3 7.0 0.00 0.00 0.00 38 985.0
20260505094603 72 153 7.8 10.4 0.00 0.00 0.00 38 985.1
20260505094203 72 157 7.0 11.3 0.00 0.00 0.00 39 985.1
20260505093803 72 147 7.0 11.3 0.00 0.00 0.00 39 985.1
20260505093401 72 139 7.8 13.9 0.00 0.00 0.00 39 985.2
20260505093001 72 137 5.2 11.3 0.00 0.00 0.00 40 985.2
20260505092601 72 118 6.1 12.2 0.00 0.00 0.00 40 985.2
20260505092201 72 156 6.1 13.9 0.00 0.00 0.00 40 985.3
20260505091801 72 143 6.1 12.2 0.00 0.00 0.00 40 985.3
20260505091359 71 192 5.2 13.0 0.00 0.00 0.00 40 985.3
20260505090959 71 158 4.3 7.0 0.00 0.00 0.00 41 985.3
20260505090559 71 173 5.2 9.6 0.00 0.00 0.00 41 985.4
20260505090159 71 129 5.2 11.3 0.00 0.00 0.00 41 985.4
20260505085759 71 116 7.8 11.3 0.00 0.00 0.00 41 985.4
20260505085358 71 150 5.2 8.7 0.00 0.00 0.00 41 985.5
20260505084958 71 133 4.3 12.2 0.00 0.00 0.00 41 985.5
20260505084557 70 153 5.2 9.6 0.00 0.00 0.00 41 985.5
20260505084155 70 124 7.0 10.4 0.00 0.00 0.00 41 985.5
20260505083755 70 128 7.8 12.2 0.00 0.00 0.00 41 985.6
20260505083352 70 121 8.7 14.8 0.00 0.00 0.00 41 985.6
20260505082952 70 105 8.7 12.2 0.00 0.00 0.00 41 985.5
20260505082553 70 129 6.1 8.7 0.00 0.00 0.00 41 985.6
20260505082153 70 139 7.0 13.0 0.00 0.00 0.00 41 985.6
20260505081753 70 151 5.2 9.6 0.00 0.00 0.00 41 985.7
20260505081351 69 136 6.1 12.2 0.00 0.00 0.00 42 985.7
20260505080951 69 118 5.2 11.3 0.00 0.00 0.00 42 985.7
20260505080548 69 113 10.4 15.6 0.00 0.00 0.00 42 985.7
20260505080148 69 145 5.2 10.4 0.00 0.00 0.00 42 985.7
20260505075748 69 127 4.3 7.8 0.00 0.00 0.00 43 985.8
20260505075346 68 118 5.2 8.7 0.00 0.00 0.00 43 985.8
20260505074946 68 118 5.2 8.7 0.00 0.00 0.00 43 985.8
20260505074547 68 128 3.5 7.0 0.00 0.00 0.00 43 985.9
20260505074147 68 111 6.1 10.4 0.00 0.00 0.00 43 985.8
20260505073747 68 117 6.1 13.0 0.00 0.00 0.00 43 985.9
20260505073337 68 115 7.0 10.4 0.00 0.00 0.00 43 985.9
20260505072934 67 126 4.3 7.0 0.00 0.00 0.00 43 985.9
20260505072533 67 117 5.2 8.7 0.00 0.00 0.00 43 986.0
20260505072132 67 120 4.3 7.8 0.00 0.00 0.00 44 986.0
20260505071732 67 113 3.5 5.2 0.00 0.00 0.00 44 986.0
20260505071330 67 109 4.3 9.6 0.00 0.00 0.00 44 986.0
20260505070930 67 120 5.2 8.7 0.00 0.00 0.00 44 986.1
20260505070530 67 114 5.2 8.7 0.00 0.00 0.00 44 986.1
20260505070131 67 125 3.5 8.7 0.00 0.00 0.00 44 986.1
20260505065329 66 114 5.2 7.8 0.00 0.00 0.00 44 986.1
20260505064929 66 121 5.2 10.4 0.00 0.00 0.00 44 986.1
20260505064529 66 111 6.1 13.0 0.00 0.00 0.00 45 986.1
20260505064129 66 110 5.2 7.0 0.00 0.00 0.00 45 986.1
20260505063729 66 125 5.2 9.6 0.00 0.00 0.00 45 986.1
20260505063327 66 126 3.5 6.1 0.00 0.00 0.00 46 986.2
20260505062928 65 116 4.3 8.7 0.00 0.00 0.00 46 986.2
20260505062527 65 116 6.1 9.6 0.00 0.00 0.00 46 986.2
20260505062125 65 112 4.3 7.0 0.00 0.00 0.00 47 986.2
20260505061725 65 131 4.3 5.2 0.00 0.00 0.00 47 986.1
20260505061323 65 110 4.3 7.8 0.00 0.00 0.00 48 986.2
20260505060923 64 114 3.5 6.1 0.00 0.00 0.00 48 986.2
20260505060523 64 104 3.5 6.1 0.00 0.00 0.00 48 986.3
20260505060123 64 108 4.3 7.0 0.00 0.00 0.00 49 986.3
20260505055723 64 109 4.3 7.8 0.00 0.00 0.00 48 986.4
20260505055321 63 110 4.3 5.2 0.00 0.00 0.00 49 986.4
20260505054921 63 108 4.3 7.0 0.00 0.00 0.00 49 986.5
20260505054519 63 110 3.5 5.2 0.00 0.00 0.00 49 986.5
20260505054119 63 128 3.5 6.1 0.00 0.00 0.00 49 986.5
20260505053719 62 117 3.5 5.2 0.00 0.00 0.00 50 986.5
20260505053317 62 117 3.5 5.2 0.00 0.00 0.00 50 986.6
20260505052917 62 119 3.5 6.1 0.00 0.00 0.00 50 986.6
20260505052517 62 110 3.5 7.0 0.00 0.00 0.00 50 986.6
20260505052117 61 112 3.5 7.0 0.00 0.00 0.00 51 986.5
20260505051717 61 118 3.5 6.1 0.00 0.00 0.00 51 986.5
20260505051315 61 110 4.3 7.8 0.00 0.00 0.00 51 986.5
20260505050913 61 118 3.5 7.0 0.00 0.00 0.00 51 986.5
20260505050513 60 115 3.5 5.2 0.00 0.00 0.00 52 986.5
20260505050105 60 114 3.5 5.2 0.00 0.00 0.00 52 986.5
20260505041658 58 112 2.6 4.3 0.00 0.00 0.00 56 986.7
20260505041256 58 112 2.6 4.3 0.00 0.00 0.00 56 986.7
20260505040856 58 122 2.6 4.3 0.00 0.00 0.00 56 986.7
20260505040456 58 113 2.6 3.5 0.00 0.00 0.00 56 986.8
20260505040054 57 123 2.6 4.3 0.00 0.00 0.00 56 986.8
20260505035654 57 124 1.7 3.5 0.00 0.00 0.00 57 986.8
20260505035252 57 119 2.6 4.3 0.00 0.00 0.00 57 986.7
20260505034452 57 122 2.6 4.3 0.00 0.00 0.00 58 986.8
20260505034052 57 118 1.7 3.5 0.00 0.00 0.00 58 986.9
20260505033652 57 110 2.6 3.5 0.00 0.00 0.00 58 986.9
20260505033250 57 105 3.5 4.3 0.00 0.00 0.00 58 986.9
20260505032850 57 107 2.6 3.5 0.00 0.00 0.00 58 986.9
20260505032048 58 109 2.6 3.5 0.00 0.00 0.00 57 987.0
20260505031648 58 109 1.7 2.6 0.00 0.00 0.00 57 987.0
20260505031246 58 109 2.6 3.5 0.00 0.00 0.00 57 987.0
20260505030846 58 113 1.7 2.6 0.00 0.00 0.00 57 987.1
20260505030446 58 118 1.7 2.6 0.00 0.00 0.00 57 987.1
20260505030046 58 114 1.7 2.6 0.00 0.00 0.00 57 987.1
20260505025646 58 113 2.6 3.5 0.00 0.00 0.00 57 987.1
20260505025244 58 112 2.6 3.5 0.00 0.00 0.00 57 987.2
20260505024842 58 113 2.6 3.5 0.00 0.00 0.00 57 987.2
20260505024442 58 111 1.7 3.5 0.00 0.00 0.00 57 987.2
20260505024042 58 112 2.6 3.5 0.00 0.00 0.00 57 987.3
20260505023642 58 116 1.7 2.6 0.00 0.00 0.00 57 987.4
20260505023232 59 114 2.6 3.5 0.00 0.00 0.00 57 987.5
20260505022832 59 115 2.6 3.5 0.00 0.00 0.00 57 987.5
20260505022431 59 114 2.6 3.5 0.00 0.00 0.00 57 987.5
20260505022029 59 109 3.5 4.3 0.00 0.00 0.00 57 987.5
20260505021629 59 112 2.6 3.5 0.00 0.00 0.00 57 987.6
20260505021227 59 117 1.7 3.5 0.00 0.00 0.00 56 987.6
20260505020827 59 118 2.6 3.5 0.00 0.00 0.00 57 987.6
20260505020427 59 128 1.7 2.6 0.00 0.00 0.00 57 987.6
20260505020027 59 137 1.7 5.2 0.00 0.00 0.00 56 987.7
20260505015627 59 112 1.7 2.6 0.00 0.00 0.00 56 987.7
20260505015225 59 111 2.6 3.5 0.00 0.00 0.00 56 987.7
20260505014825 59 110 2.6 3.5 0.00 0.00 0.00 56 987.7
20260505014425 60 115 2.6 3.5 0.00 0.00 0.00 56 987.7
20260505014022 60 114 1.7 3.5 0.00 0.00 0.00 56 987.7
20260505013622 60 113 3.5 3.5 0.00 0.00 0.00 56 987.7
20260505013220 60 119 1.7 3.5 0.00 0.00 0.00 56 987.7
20260505012820 60 114 2.6 3.5 0.00 0.00 0.00 56 987.8
20260505012420 60 116 2.6 3.5 0.00 0.00 0.00 55 987.8
20260505012020 60 123 2.6 4.3 0.00 0.00 0.00 56 987.8
20260505011620 60 120 1.7 2.6 0.00 0.00 0.00 55 987.9
20260505010818 61 110 2.6 3.5 0.00 0.00 0.00 55 987.8
20260505010417 61 123 1.7 2.6 0.00 0.00 0.00 55 987.9
20260505010017 61 124 0.9 2.6 0.00 0.00 0.00 55 987.9
20260505005617 61 116 2.6 3.5 0.00 0.00 0.00 55 987.9
20260505005215 61 117 1.7 3.5 0.00 0.00 0.00 54 988.0
20260505004815 62 110 2.6 4.3 0.00 0.00 0.00 54 987.9
20260505004415 62 114 2.6 3.5 0.00 0.00 0.00 54 988.0
20260505004015 62 110 2.6 3.5 0.00 0.00 0.00 53 988.0
20260505003615 62 109 2.6 3.5 0.00 0.00 0.00 53 988.0
20260505003213 62 109 2.6 2.6 0.00 0.00 0.00 52 988.0
20260505002811 62 104 2.6 3.5 0.00 0.00 0.00 52 988.1
20260505002411 63 124 1.7 3.5 0.00 0.00 0.00 52 988.1
20260505002011 63 134 2.6 3.5 0.00 0.00 0.00 52 988.1
20260505001611 63 141 1.7 2.6 0.00 0.00 0.00 51 988.2
20260505001209 63 116 1.7 2.6 0.00 0.00 0.00 51 988.2
20260505000809 63 117 2.6 3.5 0.00 0.00 0.00 50 988.2
20260505000409 63 148 2.6 3.5 0.00 0.00 0.00 50 988.2
20260505000001 63 158 3.5 4.3 0.00 0.00 0.00 50 988.2
20260504235600 63 162 4.3 6.1 0.00 0.00 0.00 50 988.3
20260504235157 63 165 3.5 6.1 0.00 0.00 0.00 50 988.3
20260504234756 63 155 3.5 5.2 0.00 0.00 0.00 50 988.3
20260504234356 64 154 3.5 5.2 0.00 0.00 0.00 50 988.4
20260504233956 64 150 2.6 4.3 0.00 0.00 0.00 50 988.4
20260504233556 64 147 3.5 5.2 0.00 0.00 0.00 50 988.4
20260504233154 64 163 2.6 4.3 0.00 0.00 0.00 50 988.5
20260504232754 64 152 2.6 3.5 0.00 0.00 0.00 50 988.5
20260504232354 64 154 1.7 3.5 0.00 0.00 0.00 50 988.5
20260504231951 64 153 2.6 5.2 0.00 0.00 0.00 50 988.5
20260504231551 64 158 3.5 4.3 0.00 0.00 0.00 50 988.5
20260504231149 64 161 3.5 5.2 0.00 0.00 0.00 50 988.5
20260504230749 64 158 2.6 5.2 0.00 0.00 0.00 50 988.6
20260504230349 64 165 2.6 4.3 0.00 0.00 0.00 50 988.6
20260504225949 64 161 3.5 6.1 0.00 0.00 0.00 50 988.6
20260504225549 64 157 2.6 3.5 0.00 0.00 0.00 50 988.6
20260504225147 64 175 2.6 4.3 0.00 0.00 0.00 50 988.7
20260504224747 64 178 2.6 3.5 0.00 0.00 0.00 50 988.7
20260504224347 64 182 2.6 5.2 0.00 0.00 0.00 50 988.7
20260504223947 65 176 2.6 4.3 0.00 0.00 0.00 50 988.7
20260504223546 65 171 2.6 5.2 0.00 0.00 0.00 50 988.7
20260504223144 65 171 2.6 3.5 0.00 0.00 0.00 50 988.8
20260504222744 65 170 2.6 4.3 0.00 0.00 0.00 50 988.8
20260504222344 65 169 2.6 3.5 0.00 0.00 0.00 50 988.9
20260504221944 65 163 2.6 5.2 0.00 0.00 0.00 50 988.9
20260504221544 65 176 2.6 4.3 0.00 0.00 0.00 50 988.9
20260504221142 65 161 2.6 5.2 0.00 0.00 0.00 50 988.9
20260504220740 65 151 2.6 4.3 0.00 0.00 0.00 50 988.9
20260504220339 66 169 1.7 4.3 0.00 0.00 0.00 50 988.9
20260504215939 66 171 2.6 7.0 0.00 0.00 0.00 50 988.9
20260504215539 66 167 2.6 3.5 0.00 0.00 0.00 50 988.9
20260504215137 66 156 2.6 5.2 0.00 0.00 0.00 50 988.9
20260504214737 66 165 2.6 6.1 0.00 0.00 0.00 50 988.9
20260504214337 66 151 2.6 3.5 0.00 0.00 0.00 50 988.9
20260504213937 66 164 3.5 4.3 0.00 0.00 0.00 50 989.0
20260504213537 66 162 2.6 4.3 0.00 0.00 0.00 50 988.9
20260504213128 66 170 3.5 6.1 0.00 0.00 0.00 50 988.9
20260504212727 66 174 3.5 6.1 0.00 0.00 0.00 50 989.0
20260504212326 66 165 3.5 7.8 0.00 0.00 0.00 50 989.0
20260504211925 66 174 3.5 6.1 0.00 0.00 0.00 50 989.0
20260504211525 66 167 3.5 4.3 0.00 0.00 0.00 50 989.0
20260504211123 66 166 3.5 4.3 0.00 0.00 0.00 50 989.0
20260504210723 67 164 3.5 6.1 0.00 0.00 0.00 51 989.0
20260504210323 67 175 3.5 5.2 0.00 0.00 0.00 51 989.0
20260504205921 67 170 2.6 4.3 0.00 0.00 0.00 51 989.0
20260504205521 67 162 2.6 5.2 0.00 0.00 0.00 51 989.0
20260504205119 67 156 2.6 5.2 0.00 0.00 0.00 50 989.0
20260504204719 67 164 2.6 5.2 0.00 0.00 0.00 50 989.0
20260504204319 67 160 2.6 4.3 0.00 0.00 0.00 50 989.0
20260504203919 67 180 1.7 4.3 0.00 0.00 0.00 50 989.0
20260504203519 68 165 2.6 4.3 0.00 0.00 0.00 50 989.0
20260504203117 68 158 2.6 4.3 0.00 0.00 0.00 50 989.0
20260504202717 68 173 2.6 3.5 0.00 0.00 0.00 50 988.9
20260504202317 68 176 2.6 3.5 0.00 0.00 0.00 50 989.0
20260504201917 68 187 1.7 3.5 0.00 0.00 0.00 50 989.0
20260504201517 68 178 2.6 5.2 0.00 0.00 0.00 50 988.9
20260504201115 68 167 2.6 4.3 0.00 0.00 0.00 50 989.0
20260504200715 68 163 1.7 3.5 0.00 0.00 0.00 50 988.9
20260504200315 68 162 3.5 6.1 0.00 0.00 0.00 50 988.9
20260504195915 69 166 2.6 4.3 0.00 0.00 0.00 49 988.9
20260504195515 69 169 3.5 6.1 0.00 0.00 0.00 49 988.9
20260504195113 69 167 2.6 5.2 0.00 0.00 0.00 49 988.9
20260504194711 69 169 2.6 5.2 0.00 0.00 0.00 49 988.9
20260504194311 69 162 2.6 5.2 0.00 0.00 0.00 49 988.9
20260504193911 69 156 1.7 3.5 0.00 0.00 0.00 49 988.9
20260504193511 69 159 2.6 4.3 0.00 0.00 0.00 49 988.9
20260504193109 69 153 2.6 6.1 0.00 0.00 0.00 49 988.8
20260504192709 69 151 2.6 4.3 0.00 0.00 0.00 49 988.8
20260504192309 69 160 2.6 4.3 0.00 0.00 0.00 49 988.8
20260504191909 70 141 1.7 3.5 0.00 0.00 0.00 48 988.8
20260504191509 70 158 1.7 3.5 0.00 0.00 0.00 48 988.8
20260504191107 70 165 3.5 5.2 0.00 0.00 0.00 48 988.8
20260504190707 70 163 3.5 4.3 0.00 0.00 0.00 48 988.8
20260504190307 70 163 3.5 7.0 0.00 0.00 0.00 48 988.8
20260504185900 70 145 2.6 4.3 0.00 0.00 0.00 47 988.8
20260504185459 70 160 1.7 3.5 0.00 0.00 0.00 47 988.7
20260504185057 71 154 1.7 2.6 0.00 0.00 0.00 47 988.7
20260504184655 71 149 1.7 2.6 0.00 0.00 0.00 47 988.7
20260504184255 71 148 1.7 3.5 0.00 0.00 0.00 47 988.7
20260504183853 71 145 0.9 2.6 0.00 0.00 0.00 46 988.7
20260504183608 72 133 1.7 3.5 0.00 0.00 0.00 46 988.6
20260504183453 72 133 1.7 3.5 0.00 0.00 0.00 46 988.6
20260504183051 72 144 0.9 2.6 0.00 0.00 0.00 45 988.6
20260504182651 72 140 0.9 1.7 0.00 0.00 0.00 45 988.6
20260504182251 73 179 0.9 1.7 0.00 0.00 0.00 44 988.6
20260504181451 73 145 1.7 2.6 0.00 0.00 0.00 44 988.6
20260504181049 74 153 1.7 2.6 0.00 0.00 0.00 43 988.6
20260504180649 74 160 1.7 4.3 0.00 0.00 0.00 43 988.5
20260504180249 74 154 1.7 4.3 0.00 0.00 0.00 42 988.5
20260504175849 75 149 0.9 2.6 0.00 0.00 0.00 42 988.5
20260504175450 75 156 1.7 4.3 0.00 0.00 0.00 42 988.6
20260504175048 76 165 1.7 4.3 0.00 0.00 0.00 41 988.5
20260504174648 76 145 1.7 2.6 0.00 0.00 0.00 41 988.5
20260504174248 77 163 1.7 3.5 0.00 0.00 0.00 40 988.4
20260504173848 77 164 1.7 5.2 0.00 0.00 0.00 40 988.4
20260504173448 78 144 1.7 3.5 0.00 0.00 0.00 39 988.4
20260504173046 78 189 1.7 3.5 0.00 0.00 0.00 39 988.4
20260504172643 79 151 1.7 3.5 0.00 0.00 0.00 38 988.4
20260504172243 80 162 3.5 6.1 0.00 0.00 0.00 37 988.4
20260504171844 80 144 1.7 3.5 0.00 0.00 0.00 37 988.4
20260504171444 80 173 3.5 4.3 0.00 0.00 0.00 36 988.4
20260504171042 81 155 3.5 6.1 0.00 0.00 0.00 36 988.4
20260504170642 81 158 1.7 3.5 0.00 0.00 0.00 36 988.4
20260504170242 81 160 3.5 6.1 0.00 0.00 0.00 36 988.4